Time,TemperatureF,DewpointF,PressureIn,WindDirection,WindDirectionDegrees,WindSpeedMPH,WindSpeedGustMPH,Humidity,HourlyPrecipIn,Conditions,Clouds,dailyrainin,SolarRadiationWatts/m^2,SoftwareType,DateUTC
2013-05-13 00:01:00,56.0,52.0,-100.00,South,184,0.0,0.0,87,0.00,,,0.00,11.000000,,2013-05-13 07:01:00,
2013-05-13 00:11:00,56.0,52.0,-100.00,South,184,0.0,0.0,87,0.00,,,0.00,11.000000,,2013-05-13 07:11:00,
2013-05-13 00:42:00,55.0,52.0,-100.00,SSW,197,0.0,5.0,89,0.00,,,-99.99,11.000000,,2013-05-13 07:42:00,
2013-05-13 00:52:00,55.0,52.0,-100.00,SSW,197,0.0,5.0,89,0.00,,,-99.99,11.000000,,2013-05-13 07:52:00,
2013-05-13 01:02:00,55.0,52.0,-100.00,SSW,197,0.0,5.0,89,0.00,,,-99.99,11.000000,,2013-05-13 08:02:00,
2013-05-13 01:11:00,55.0,52.0,-100.00,SSW,197,0.0,5.0,89,0.00,,,-99.99,11.000000,,2013-05-13 08:11:00,
2013-05-13 01:42:00,53.0,51.0,-100.00,SW,215,0.0,3.0,93,0.00,,,0.00,10.000000,,2013-05-13 08:42:00,
2013-05-13 01:52:00,53.0,51.0,-100.00,SW,215,0.0,3.0,93,0.00,,,0.00,10.000000,,2013-05-13 08:52:00,
2013-05-13 02:01:00,53.0,51.0,-100.00,SW,215,0.0,3.0,93,0.00,,,0.00,10.000000,,2013-05-13 09:01:00,
2013-05-13 02:11:00,53.0,51.0,-100.00,SW,215,0.0,3.0,93,0.00,,,0.00,10.000000,,2013-05-13 09:11:00,
2013-05-13 02:33:00,53.0,52.0,-100.00,South,185,0.0,9.0,96,0.00,,,-99.99,10.000000,,2013-05-13 09:33:00,
2013-05-13 02:42:00,53.0,52.0,-100.00,South,185,0.0,9.0,96,0.00,,,-99.99,10.000000,,2013-05-13 09:42:00,
2013-05-13 02:52:00,53.0,52.0,-100.00,South,185,0.0,9.0,96,0.00,,,-99.99,10.000000,,2013-05-13 09:52:00,
2013-05-13 03:02:00,53.0,52.0,-100.00,South,185,0.0,9.0,96,0.00,,,-99.99,10.000000,,2013-05-13 10:02:00,
2013-05-13 03:12:00,53.0,52.0,-100.00,South,185,0.0,9.0,96,0.00,,,-99.99,10.000000,,2013-05-13 10:12:00,
2013-05-13 03:33:00,52.0,50.0,-100.00,SSW,204,0.0,5.0,94,0.01,,,0.01,9.000000,,2013-05-13 10:33:00,
2013-05-13 03:43:00,52.0,50.0,-100.00,SSW,204,0.0,5.0,94,0.01,,,0.01,9.000000,,2013-05-13 10:43:00,
2013-05-13 03:52:00,52.0,50.0,-100.00,SSW,204,0.0,5.0,94,0.01,,,0.01,9.000000,,2013-05-13 10:52:00,
2013-05-13 04:02:00,52.0,50.0,-100.00,SSW,204,0.0,5.0,94,0.01,,,0.01,9.000000,,2013-05-13 11:02:00,
2013-05-13 04:12:00,52.0,50.0,-100.00,SSW,204,0.0,5.0,94,0.01,,,0.01,9.000000,,2013-05-13 11:12:00,
2013-05-13 04:32:00,51.0,33.0,-100.00,South,182,0.0,5.0,49,0.01,,,0.02,9.000000,,2013-05-13 11:32:00,
2013-05-13 05:42:00,52.0,31.0,-100.00,South,191,4.0,7.0,45,0.00,,,-99.99,9.000000,,2013-05-13 12:42:00,
2013-05-13 05:52:00,52.0,31.0,-100.00,South,191,4.0,7.0,45,0.00,,,-99.99,9.000000,,2013-05-13 12:52:00,
2013-05-13 06:32:00,52.0,32.0,-100.00,SSW,196,4.0,8.0,46,0.00,,,0.02,11.000000,,2013-05-13 13:32:00,
2013-05-13 07:42:00,51.0,31.0,-100.00,SSW,194,5.0,8.0,47,0.00,,,0.02,43.000000,,2013-05-13 14:42:00,
2013-05-13 08:42:00,54.0,35.0,-100.00,SSW,193,5.0,10.0,49,0.00,,,0.02,178.000000,,2013-05-13 15:42:00,
2013-05-13 09:33:00,53.0,52.0,-100.00,SSW,196,3.0,9.0,97,0.00,,,0.02,140.000000,,2013-05-13 16:33:00,
2013-05-13 09:43:00,53.0,52.0,-100.00,SSW,196,3.0,9.0,97,0.00,,,0.02,140.000000,,2013-05-13 16:43:00,
2013-05-13 09:52:00,53.0,52.0,-100.00,SSW,196,3.0,9.0,97,0.00,,,0.02,140.000000,,2013-05-13 16:52:00,
2013-05-13 10:02:00,53.0,52.0,-100.00,SSW,196,3.0,9.0,97,0.00,,,0.02,140.000000,,2013-05-13 17:02:00,
2013-05-13 10:12:00,53.0,52.0,-100.00,SSW,196,3.0,9.0,97,0.00,,,0.02,140.000000,,2013-05-13 17:12:00,
2013-05-13 10:32:00,53.0,52.0,-100.00,SSW,192,4.0,9.0,97,0.00,,,0.02,137.000000,,2013-05-13 17:32:00,
2013-05-13 10:42:00,53.0,52.0,-100.00,SSW,192,4.0,9.0,97,0.00,,,0.02,137.000000,,2013-05-13 17:42:00,
2013-05-13 10:54:00,53.0,52.0,-100.00,SSW,192,4.0,9.0,97,0.00,,,0.02,137.000000,,2013-05-13 17:54:00,
2013-05-13 11:03:00,53.0,52.0,-100.00,SSW,192,4.0,9.0,97,0.00,,,0.02,137.000000,,2013-05-13 18:03:00,
2013-05-13 11:12:00,53.0,52.0,-100.00,SSW,192,4.0,9.0,97,0.00,,,0.02,137.000000,,2013-05-13 18:12:00,
2013-05-13 12:32:00,60.0,26.0,-100.00,SSW,199,6.0,16.0,27,-99.99,,,0.02,442.000000,,2013-05-13 19:32:00,
2013-05-13 13:34:00,59.0,21.0,-100.00,SW,229,5.0,19.0,23,0.00,,,0.02,744.000000,,2013-05-13 20:34:00,
2013-05-13 14:43:00,66.0,3.0,-100.00,SW,234,5.0,17.0,8,0.00,,,0.02,715.000000,,2013-05-13 21:43:00,
2013-05-13 15:43:00,59.0,33.0,-100.00,West,269,5.0,20.0,38,0.00,,,0.02,739.000000,,2013-05-13 22:43:00,
2013-05-13 16:42:00,58.0,48.0,-100.00,WSW,242,4.0,21.0,70,0.00,,,0.02,388.000000,,2013-05-13 23:42:00,
2013-05-13 16:54:00,58.0,48.0,-100.00,WSW,242,4.0,21.0,70,0.00,,,0.02,388.000000,,2013-05-13 23:54:00,
2013-05-13 17:02:00,58.0,48.0,-100.00,WSW,242,4.0,21.0,70,0.00,,,0.02,388.000000,,2013-05-14 00:02:00,
2013-05-13 17:12:00,58.0,48.0,-100.00,WSW,242,4.0,21.0,70,0.00,,,0.02,388.000000,,2013-05-14 00:12:00,
2013-05-13 18:32:00,59.0,46.0,-100.00,WNW,282,3.0,11.0,61,-99.99,,,0.02,392.000000,,2013-05-14 01:32:00,
2013-05-13 18:43:00,59.0,46.0,-100.00,WNW,282,3.0,11.0,61,-99.99,,,0.02,392.000000,,2013-05-14 01:43:00,
2013-05-13 18:53:00,59.0,46.0,-100.00,WNW,282,3.0,11.0,61,-99.99,,,0.02,392.000000,,2013-05-14 01:53:00,
2013-05-13 19:02:00,59.0,46.0,-100.00,WNW,282,3.0,11.0,61,-99.99,,,0.02,392.000000,,2013-05-14 02:02:00,
2013-05-13 19:11:00,59.0,46.0,-100.00,WNW,282,3.0,11.0,61,-99.99,,,0.02,392.000000,,2013-05-14 02:11:00,
2013-05-13 19:32:00,53.0,43.0,-100.00,West,267,2.0,15.0,70,0.00,,,0.02,243.000000,,2013-05-14 02:32:00,
2013-05-13 19:42:00,53.0,43.0,-100.00,West,267,2.0,15.0,70,0.00,,,0.02,243.000000,,2013-05-14 02:42:00,
2013-05-13 19:52:00,53.0,43.0,-100.00,West,267,2.0,15.0,70,0.00,,,0.02,243.000000,,2013-05-14 02:52:00,
2013-05-13 20:01:00,53.0,43.0,-100.00,West,267,2.0,15.0,70,0.00,,,0.02,243.000000,,2013-05-14 03:01:00,
2013-05-13 20:11:00,53.0,43.0,-100.00,West,267,2.0,15.0,70,0.00,,,0.02,243.000000,,2013-05-14 03:11:00,
2013-05-13 20:33:00,50.0,23.0,-100.00,West,277,0.0,8.0,34,0.00,,,0.02,81.000000,,2013-05-14 03:33:00,
2013-05-13 21:32:00,48.0,14.0,-100.00,WNW,296,2.0,8.0,25,0.00,,,0.02,9.000000,,2013-05-14 04:32:00,
2013-05-13 22:32:00,47.0,10.0,-100.00,North,0,0.0,7.0,22,0.00,,,0.02,6.000000,,2013-05-14 05:32:00,
2013-05-13 23:32:00,47.0,10.0,-100.00,NNW,346,0.0,5.0,22,0.00,,,0.02,6.000000,,2013-05-14 06:32:00,